| time (UTC) | temp F | wind direction | speed knots | gust knots | rain 1hr in | rain 24hr in | rain mn in | humidity % | barometer mb |
| 20260504050006 | 58 | 199 | 0.0 | 2.6 | 0.00 | 0.00 | 0.00 | 84 | 1020.2 |
| 20260504044604 | 56 | 199 | 0.0 | 2.6 | 0.00 | 0.00 | 0.00 | 86 | 1020.0 |
| 20260504043108 | 56 | 208 | 0.0 | 2.6 | 0.00 | 0.00 | 0.00 | 86 | 1019.8 |
| 20260504041621 | 56 | 208 | 0.0 | 2.6 | 0.00 | 0.00 | 0.00 | 86 | 1019.9 |
| 20260504040128 | 56 | 208 | 0.0 | 2.6 | 0.00 | 0.00 | 0.00 | 86 | 1019.7 |
| 20260504034509 | 56 | 208 | 0.9 | 3.5 | 0.00 | 0.00 | 0.00 | 86 | 1019.6 |
| 20260504033101 | 56 | 219 | 0.0 | 4.3 | 0.00 | 0.00 | 0.00 | 86 | 1019.6 |
| 20260504031626 | 56 | 222 | 0.9 | 4.3 | 0.00 | 0.00 | 0.00 | 86 | 1019.6 |
| 20260504030002 | 56 | 230 | 0.0 | 3.5 | 0.00 | 0.00 | 0.00 | 86 | 1019.7 |
| 20260504024606 | 56 | 230 | 0.0 | 3.5 | 0.00 | 0.00 | 0.00 | 85 | 1019.8 |
| 20260504023123 | 56 | 230 | 0.0 | 2.6 | 0.00 | 0.00 | 0.00 | 86 | 1019.9 |
| 20260504021635 | 56 | 230 | 0.0 | 0.0 | 0.00 | 0.00 | 0.00 | 85 | 1020.0 |
| 20260504020006 | 56 | 230 | 0.9 | 2.6 | 0.00 | 0.00 | 0.00 | 85 | 1019.8 |
| 20260504014523 | 56 | 230 | 0.9 | 1.7 | 0.00 | 0.00 | 0.00 | 85 | 1019.9 |
| 20260504013143 | 56 | 230 | 0.0 | 0.0 | 0.00 | 0.00 | 0.00 | 85 | 1019.8 |
| 20260504011618 | 57 | 230 | 0.0 | 0.9 | 0.00 | 0.00 | 0.00 | 84 | 1019.9 |
| 20260504010136 | 57 | 230 | 0.0 | 0.0 | 0.00 | 0.00 | 0.00 | 83 | 1019.9 |
| 20260504004648 | 57 | 230 | 0.0 | 0.9 | 0.00 | 0.00 | 0.00 | 83 | 1019.9 |
| 20260504003059 | 58 | 230 | 0.0 | 2.6 | 0.00 | 0.00 | 0.00 | 83 | 1019.9 |
| 20260504001614 | 58 | 230 | 0.0 | 3.5 | 0.00 | 0.00 | 0.00 | 82 | 1020.0 |
| 20260504000133 | 58 | 230 | 0.9 | 3.5 | 0.00 | 0.00 | 0.00 | 82 | 1020.0 |
| 20260503234556 | 58 | 230 | 1.7 | 2.6 | 0.00 | 0.00 | 0.00 | 82 | 1020.0 |
| 20260503233111 | 58 | 230 | 0.0 | 1.7 | 0.00 | 0.00 | 0.00 | 82 | 1020.1 |
| 20260503231636 | 58 | 230 | 0.9 | 3.5 | 0.00 | 0.00 | 0.00 | 81 | 1020.3 |
| 20260503230053 | 58 | 230 | 1.7 | 3.5 | 0.00 | 0.00 | 0.00 | 81 | 1020.2 |
| 20260503224620 | 59 | 230 | 0.9 | 3.5 | 0.00 | 0.00 | 0.00 | 80 | 1020.3 |
| 20260503223135 | 59 | 230 | 0.9 | 3.5 | 0.00 | 0.00 | 0.00 | 81 | 1020.3 |
| 20260503221601 | 59 | 230 | 0.0 | 2.6 | 0.00 | 0.00 | 0.00 | 80 | 1020.2 |
| 20260503220023 | 59 | 230 | 0.9 | 2.6 | 0.00 | 0.00 | 0.00 | 80 | 1020.2 |
| 20260503214623 | 59 | 230 | 0.9 | 3.5 | 0.00 | 0.00 | 0.00 | 80 | 1020.2 |
| 20260503213004 | 59 | 230 | 1.7 | 4.3 | 0.00 | 0.00 | 0.00 | 80 | 1020.2 |
| 20260503211520 | 59 | 230 | 0.9 | 3.5 | 0.00 | 0.00 | 0.00 | 80 | 1020.1 |
| 20260503210006 | 59 | 230 | 0.9 | 3.5 | 0.00 | 0.00 | 0.00 | 80 | 1020.1 |
| 20260503204621 | 59 | 230 | 1.7 | 4.3 | 0.00 | 0.00 | 0.00 | 80 | 1020.1 |
| 20260503203128 | 59 | 230 | 0.0 | 3.5 | 0.00 | 0.00 | 0.00 | 80 | 1020.1 |
| 20260503201508 | 59 | 230 | 0.9 | 5.2 | 0.00 | 0.00 | 0.00 | 79 | 1020.1 |
| 20260503200121 | 60 | 239 | 1.7 | 7.0 | 0.00 | 0.00 | 0.00 | 77 | 1020.2 |
| 20260503194632 | 60 | 242 | 3.5 | 7.0 | 0.00 | 0.00 | 0.00 | 77 | 1020.0 |
| 20260503193144 | 60 | 245 | 4.3 | 9.6 | 0.00 | 0.00 | 0.00 | 76 | 1019.9 |
| 20260503191520 | 60 | 241 | 4.3 | 8.7 | 0.00 | 0.00 | 0.00 | 76 | 1019.6 |
| 20260503190027 | 60 | 243 | 3.5 | 7.0 | 0.00 | 0.00 | 0.00 | 75 | 1019.6 |
| 20260503184626 | 60 | 218 | 2.6 | 7.0 | 0.00 | 0.00 | 0.00 | 74 | 1019.6 |
| 20260503183129 | 60 | 224 | 3.5 | 7.8 | 0.00 | 0.00 | 0.00 | 73 | 1019.4 |
| 20260503181556 | 60 | 243 | 3.5 | 8.7 | 0.00 | 0.00 | 0.00 | 71 | 1019.2 |
| 20260503180116 | 61 | 232 | 3.5 | 9.6 | 0.00 | 0.00 | 0.00 | 70 | 1019.0 |
| 20260503174627 | 61 | 241 | 6.1 | 10.4 | 0.00 | 0.00 | 0.00 | 68 | 1019.1 |
| 20260503173137 | 62 | 247 | 5.2 | 9.6 | 0.00 | 0.00 | 0.00 | 67 | 1018.9 |
| 20260503171600 | 62 | 246 | 4.3 | 7.8 | 0.00 | 0.00 | 0.00 | 65 | 1018.7 |
| 20260503170119 | 62 | 220 | 5.2 | 7.8 | 0.00 | 0.00 | 0.00 | 66 | 1018.8 |
| 20260503160115 | 64 | 241 | 6.1 | 13.9 | 0.00 | 0.00 | 0.00 | 60 | 1019.2 |
| 20260503150125 | 65 | 268 | 8.7 | 14.8 | 0.00 | 0.00 | 0.00 | 60 | 1019.5 |
| 20260503140135 | 65 | 255 | 7.8 | 17.4 | 0.00 | 0.00 | 0.00 | 55 | 1019.8 |
| 20260503130139 | 68 | 245 | 7.0 | 14.8 | 0.00 | 0.00 | 0.00 | 47 | 1019.9 |
| 20260503090137 | 68 | 247 | 2.6 | 6.1 | 0.00 | 0.00 | 0.00 | 36 | 1021.0 |
| 20260503081608 | 66 | 1 | 0.0 | 3.5 | 0.00 | 0.00 | 0.00 | 42 | 1021.1 |
| 20260503080122 | 0 | 0.0 | 0.0 | 0.00 | 0.00 | 0.00 | 1021.2 | ||
| 20260503071615 | 62 | 346 | 0.9 | 4.3 | 0.00 | 0.00 | 0.00 | 53 | 1021.4 |
| 20260503070124 | 62 | 346 | 1.7 | 4.3 | 0.00 | 0.00 | 0.00 | 59 | 1021.4 |
| 20260503054506 | 60 | 241 | 0.0 | 0.9 | 0.00 | 0.00 | 0.00 | 52 | 1021.3 |
| 20260503053058 | 58 | 240 | 0.0 | 0.0 | 0.00 | 0.00 | 0.00 | 58 | 1021.1 |